Content
SEND FEEDBACK

Daily
Averages
Monthly
Summary
Switzerland

GENEVA, SWITZERLAND


Home > Europe > Switzerland
Elevation: 1364 feet     Latitude: 46 15N     Longitude: 006 08E

WEATHER
 
SELECT A DAY
Number of Records: 311,593;   Date Range: 7/1/96 - 9/28/14
 
SHARE

PRINT THIS DATA

[ ← Previous Day ]
WEATHER ALMANAC - JULY 30, 2014
[ Next Day → ]
[ °C ]   °F
Weather ElementAverageHighLow
Temperature61.3 °F64.4 °F (12:50 am)57.2 °F (9:20 pm)
Dewpoint59.9 °F62.6 °F (6:20 pm)56 °F (10:00 am)
Humidity94.5 %100 % (6:20 am)79 % (11:00 pm)
Barometer29.93 in30.01 in (12:00 am)29.86 in (3:00 pm)
Wind Speed2.7 mph5.8 mph (4:00 pm)
Weather ElementAverage
Visibility5.7 mi
Wind DirectionESE (123.1 °)

Weather ElementTotal
Precipitation---
Heating Degree Days4.2 (Base 65)
Growing Degree Days10.8 (Base 50)
Averaged from 70 records on July 30, 2014
WEATHER CONDITIONS BREAKOUT
WIND DIRECTION BREAKOUT
WEATHER BY HOUR - JULY 30, 2014
[ °C ]   °F
Local TimeTemperatureDewpointHumidityBarometerVisibilityWind DirectionWind SpeedGust SpeedPrecipitationEventsConditions
12:00 AM59.0 °F57.0 °F91 %29.89 inSouth (180°)2.3 mph
12:20 AM57.2 °F57.2 °F100 %29.89 in6.2 miSW (230°)2.3 mphMostly Cloudy
1:00 AM59.0 °F57.0 °F89 %29.88 inSSW (210°)2.3 mph
1:20 AM57.2 °F57.2 °F100 %29.89 in6.2 miVariable2.3 mphScattered Clouds
1:50 AM57.2 °F57.2 °F100 %29.89 in6.2 miVariable2.3 mphMostly Cloudy
2:00 AM58.0 °F56.0 °F92 %29.88 in16.0 miWest (270°)3.5 mphPartly Cloudy
2:20 AM57.2 °F57.2 °F100 %29.89 in6.2 miVariable1.2 mphMostly Cloudy
2:50 AM57.2 °F57.2 °F100 %29.89 in6.2 miVariable1.2 mphMostly Cloudy
3:00 AM59.0 °F56.0 °F88 %29.89 inWest (260°)3.5 mph
3:50 AM57.2 °F57.2 °F100 %29.89 in6.2 miSW (230°)3.5 mphRainLight Rain
4:00 AM59.0 °F57.0 °F89 %29.88 inWSW (240°)3.5 mph
4:20 AM59.0 °F59.0 °F100 %29.89 in5.6 miVariable2.3 mphRainLight Rain
4:50 AM59.0 °F59.0 °F100 %29.86 in6.2 miWSW (240°)3.5 mphRainLight Rain
5:00 AM59.0 °F57.0 °F91 %29.87 in7.0 miSW (230°)4.6 mphRainLight Rain
5:20 AM57.2 °F57.2 °F100 %29.89 in6.2 miWSW (240°)4.6 mphRainLight Rain
5:50 AM59.0 °F59.0 °F100 %29.89 in5.0 miWSW (250°)4.6 mphLight Drizzle
6:00 AM59.0 °F57.0 °F89 %29.87 inSW (230°)3.5 mph
6:20 AM59.0 °F59.0 °F100 %29.89 in6.2 miWest (260°)3.5 mphMostly Cloudy
6:50 AM57.2 °F57.2 °F100 %29.89 in6.2 miSW (220°)3.5 mphMostly Cloudy
7:00 AM59.0 °F57.0 °F89 %29.87 inWSW (240°)4.6 mph
7:20 AM59.0 °F59.0 °F100 %29.89 in6.2 miVariable2.3 mphMostly Cloudy
7:50 AM59.0 °F59.0 °F100 %29.89 in6.2 miVariable1.2 mphMostly Cloudy
8:00 AM59.0 °F56.0 °F88 %29.88 in11.0 miWest (270°)2.3 mphPartly Cloudy
8:20 AM59.0 °F59.0 °F100 %29.89 in6.2 miVariable2.3 mphMostly Cloudy
8:50 AM59.0 °F59.0 °F100 %29.89 in5.0 miVariable2.3 mphRainLight Rain Showers
9:00 AM60.0 °F57.0 °F87 %29.88 inWSW (250°)2.3 mph
9:20 AM59.0 °F59.0 °F100 %29.89 in4.3 miVariable2.3 mphRainLight Rain Showers
9:50 AM59.0 °F59.0 °F100 %29.89 in5.0 miVariable2.3 mphRainLight Rain Showers
10:00 AM60.0 °F58.0 °F89 %29.89 inWest (270°)3.5 mph
10:20 AM60.8 °F59.0 °F94 %29.92 in6.2 miVariable3.5 mphMostly Cloudy
10:50 AM60.8 °F59.0 °F94 %29.92 in3.7 miVariable2.3 mphRainLight Rain Showers
11:00 AM61.0 °F58.0 °F88 %29.90 in5.0 miWest (280°)1.2 mphRainLight Rain Showers
11:20 AM60.8 °F59.0 °F94 %29.92 in6.2 miVariable1.2 mphMostly Cloudy
11:50 AM62.6 °F60.8 °F94 %29.92 in6.2 miWSW (240°)4.6 mphMostly Cloudy
12:00 PM62.0 °F59.0 °F87 %29.91 inWest (260°)4.6 mph
12:20 PM62.6 °F59.0 °F88 %29.92 in6.2 miSW (230°)4.6 mphMostly Cloudy
12:50 PM64.4 °F59.0 °F83 %29.92 in6.2 miSSW (210°)5.8 mphMostly Cloudy
1:00 PM64.0 °F59.0 °F79 %29.91 inSSW (200°)4.6 mph
1:20 PM64.4 °F60.8 °F88 %29.92 in2.5 miVariable3.5 mphRainLight Rain
1:50 PM64.4 °F62.6 °F94 %29.95 in5.0 miVariable1.2 mphMostly Cloudy
2:00 PM64.0 °F60.0 °F82 %29.91 in2.0 miWest (260°)2.3 mphRainLight Rain
2:20 PM64.4 °F62.6 °F94 %29.95 in5.0 miVariable3.5 mphMostly Cloudy
2:50 PM62.6 °F62.6 °F100 %29.95 in3.1 miWest (270°)3.5 mphRainLight Rain
3:00 PM64.0 °F62.0 °F89 %29.92 inWest (260°)3.5 mph
3:20 PM64.4 °F62.6 °F94 %29.95 in3.1 miWest (270°)3.5 mphDrizzle
3:50 PM64.4 °F62.6 °F94 %29.95 in3.7 miVariable3.5 mphRainLight Rain
4:00 PM64.0 °F61.0 °F88 %29.93 inWest (270°)2.3 mph
4:20 PM64.4 °F62.6 °F94 %29.95 inVariable3.5 mphRainRain
4:50 PM64.4 °F62.6 °F94 %29.95 inVariable2.3 mphRainLight Rain
5:00 PM64.0 °F62.0 °F91 %29.93 in2.0 miWest (260°)3.5 mphRainRain
5:20 PM64.4 °F62.6 °F94 %29.95 in5.0 miVariable2.3 mphRainLight Rain
5:50 PM64.4 °F62.6 °F94 %29.98 in5.6 miVariable2.3 mphRainLight Rain
6:00 PM64.0 °F62.0 °F90 %29.94 inWNW (290°)3.5 mph
6:20 PM62.6 °F62.6 °F100 %29.98 inVariable3.5 mphOvercast
6:50 PM62.6 °F62.6 °F100 %29.98 in2.8 miVariable3.5 mphLight Drizzle
7:00 PM64.0 °F62.0 °F89 %29.95 inWest (280°)2.3 mph
7:20 PM62.6 °F62.6 °F100 %29.98 in3.7 miWSW (240°)2.3 mphLight Drizzle
7:50 PM62.6 °F62.6 °F100 %29.98 in6.2 miVariable2.3 mphLight Drizzle
8:00 PM64.0 °F61.0 °F88 %29.95 in6.0 miWNW (290°)2.3 mphRainLight Drizzle
8:20 PM62.6 °F62.6 °F100 %29.98 in3.1 miVariable3.5 mphDrizzle
8:50 PM62.6 °F62.6 °F100 %29.98 in6.2 miVariable1.2 mphRainLight Rain
9:00 PM64.0 °F62.0 °F91 %29.96 inNE (40°)1.2 mph
9:20 PM62.6 °F62.6 °F100 %30.01 in6.2 miVariable1.2 mphRainLight Rain
9:50 PM62.6 °F62.6 °F100 %30.01 in6.2 miCalmMostly Cloudy
10:00 PM64.0 °F62.0 °F91 %29.98 inENE (70°)2.3 mph
10:20 PM62.6 °F62.6 °F100 %30.01 in6.2 miCalmMostly Cloudy
10:50 PM62.6 °F62.6 °F100 %30.01 in6.2 miENE (60°)1.2 mphMostly Cloudy
11:00 PM64.0 °F62.0 °F91 %29.99 in11.0 miNNE (20°)1.2 mphPartly Cloudy
11:20 PM62.6 °F62.6 °F100 %30.01 in6.2 miVariable1.2 mphMostly Cloudy
11:50 PM62.6 °F62.6 °F100 %30.01 in6.2 miCalmMostly Cloudy
Hourly data recorded from LSGG, located miles away from Geneva, Switzerland







STORIES FROM OUR PARTNERS